When you browse on this site, cookies collect data to enhance your experience and personalize the content and advertising you see.
Visit our Privacy Policy to learn more. By continuing to use the site, you agree to this use of cookies and data.
  • In Spain
  • List of Countries
  • For 7 days
  • Water Temperature
  • Satellite Maps
  • Weather Map
  • Weather Widgets
  • user-avatar
    Login

    Hourly Weather Kaprun

    Today, 19 February, Tuesday

    Time Temperature Precipitation Wind Pressure Humidity
    00:00 -6°C° 0 mm 2 mps 595 mmHg 46%
    01:00 -5°C° 0 mm 2 mps 595 mmHg 44%
    02:00 -6°C° 0 mm 2 mps 595 mmHg 44%
    03:00 -6°C° 0 mm 2 mps 595 mmHg 43%
    04:00 -6°C° 0 mm 1 mps 594 mmHg 43%
    05:00 -6°C° 0 mm 1 mps 594 mmHg 44%
    06:00 -6°C° 0 mm 1 mps 595 mmHg 46%
    07:00 -7°C° 0 mm 1 mps 595 mmHg 48%
    08:00 -4°C° 0 mm 1 mps 595 mmHg 57%
    09:00 -2°C° 0 mm 1 mps 596 mmHg 67%
    10:00 0°C° 0 mm 1 mps 597 mmHg 77%
    11:00 0°C° 0 mm 1 mps 597 mmHg 81%
    12:00 +1°C° 0 mm 1 mps 597 mmHg 86%
    13:00 +1°C° 0 mm 1 mps 597 mmHg 90%
    14:00 +1°C° 0 mm 1 mps 597 mmHg 92%
    15:00 +1°C° 0 mm 1 mps 596 mmHg 93%
    16:00 0°C° 0 mm 1 mps 596 mmHg 94%
    17:00 -1°C° 0 mm 1 mps 596 mmHg 92%
    18:00 -3°C° 0 mm 1 mps 595 mmHg 91%
    19:00 -6°C° 0 mm 1 mps 595 mmHg 90%
    20:00 -6°C° 0 mm 1 mps 595 mmHg 86%
    21:00 -6°C° 0 mm 1 mps 595 mmHg 82%
    22:00 -7°C° 0 mm 1 mps 595 mmHg 78%
    23:00 -7°C° 0 mm 1 mps 595 mmHg 77%

    Tomorrow, 20 February, Wednesday

    Time Temperature Precipitation Wind Pressure Humidity
    00:00 -7°C° 0 mm 1 mps 595 mmHg 76%
    01:00 -7°C° 0 mm 1 mps 595 mmHg 75%
    02:00 -7°C° 0 mm 1 mps 595 mmHg 76%
    03:00 -7°C° 0 mm 1 mps 595 mmHg 78%
    04:00 -7°C° 0 mm 1 mps 595 mmHg 79%
    05:00 -7°C° 0 mm 1 mps 595 mmHg 80%
    06:00 -7°C° 0 mm 1 mps 595 mmHg 82%
    07:00 -7°C° 0 mm 1 mps 596 mmHg 83%
    08:00 -4°C° 0 mm 1 mps 597 mmHg 84%
    09:00 -2°C° 0 mm 1 mps 597 mmHg 85%
    10:00 -1°C° 0 mm 1 mps 598 mmHg 86%
    11:00 0°C° 0 mm 1 mps 599 mmHg 88%
    12:00 0°C° 0 mm 1 mps 599 mmHg 90%
    13:00 +1°C° 0 mm 1 mps 599 mmHg 91%
    14:00 +1°C° 0 mm 1 mps 599 mmHg 92%
    15:00 0°C° 0 mm 1 mps 598 mmHg 93%
    16:00 0°C° 0 mm 1 mps 598 mmHg 94%
    17:00 -1°C° 0 mm 1 mps 598 mmHg 94%
    18:00 -2°C° 0 mm 1 mps 598 mmHg 94%
    19:00 -4°C° 0 mm 1 mps 598 mmHg 94%
    20:00 -4°C° 0 mm 1 mps 598 mmHg 91%
    21:00 -6°C° 0 mm 1 mps 598 mmHg 89%
    22:00 -6°C° 0 mm 1 mps 598 mmHg 87%
    23:00 -6°C° 0 mm 1 mps 598 mmHg 84%

    Day after tomorrow, 21 February, Thursday

    Time Temperature Precipitation Wind Pressure Humidity
    00:00 -6°C° 0 mm 1 mps 598 mmHg 82%
    01:00 -6°C° 0 mm 1 mps 598 mmHg 80%
    02:00 -6°C° 0 mm 1 mps 599 mmHg 78%
    03:00 -6°C° 0 mm 1 mps 599 mmHg 76%
    04:00 -6°C° 0 mm 1 mps 599 mmHg 75%
    05:00 -6°C° 0 mm 1 mps 599 mmHg 74%
    06:00 -6°C° 0 mm 1 mps 599 mmHg 73%
    07:00 -6°C° 0 mm 1 mps 599 mmHg 72%
    08:00 -3°C° 0 mm 1 mps 600 mmHg 75%
    09:00 -1°C° 0 mm 1 mps 601 mmHg 78%
    10:00 +1°C° 0 mm 1 mps 602 mmHg 80%
    11:00 +1°C° 0 mm 1 mps 602 mmHg 83%
    12:00 +1°C° 0 mm 1 mps 602 mmHg 85%
    13:00 +2°C° 0 mm 1 mps 602 mmHg 88%
    14:00 +2°C° 0 mm 1 mps 601 mmHg 89%
    15:00 +1°C° 0 mm 1 mps 601 mmHg 90%
    16:00 -1°C° 0 mm 2 mps 601 mmHg 91%
    17:00 -2°C° 0 mm 2 mps 601 mmHg 89%
    18:00 -3°C° 0 mm 2 mps 601 mmHg 87%
    19:00 -4°C° 0 mm 2 mps 600 mmHg 85%
    20:00 -5°C° 0 mm 2 mps 601 mmHg 86%
    21:00 -5°C° 0 mm 2 mps 601 mmHg 87%
    22:00 -5°C° 0 mm 2 mps 601 mmHg 88%
    23:00 -6°C° 0 mm 2 mps 601 mmHg 88%

    22 February, Friday

    Time Temperature Precipitation Wind Pressure Humidity
    00:00 -6°C° 0 mm 2 mps 601 mmHg 89%
    01:00 -6°C° 0 mm 2 mps 601 mmHg 89%
    02:00 -6°C° 0 mm 2 mps 601 mmHg 89%
    03:00 -6°C° 0 mm 2 mps 601 mmHg 89%
    04:00 -7°C° 0 mm 2 mps 601 mmHg 89%
    05:00 -7°C° 0 mm 2 mps 601 mmHg 89%
    06:00 -7°C° 0 mm 2 mps 601 mmHg 90%
    07:00 -7°C° 0 mm 2 mps 601 mmHg 90%
    08:00 -7°C° 0 mm 3 mps 602 mmHg 89%
    09:00 -5°C° 0 mm 3 mps 602 mmHg 89%
    10:00 -4°C° 0 mm 3 mps 603 mmHg 88%
    11:00 -2°C° 0 mm 3 mps 603 mmHg 89%
    12:00 -2°C° 0 mm 3 mps 603 mmHg 89%
    13:00 -3°C° 0 mm 4 mps 603 mmHg 90%
    14:00 -3°C° 0.1 mm 4 mps 603 mmHg 90%
    15:00 -3°C° 0.1 mm 4 mps 602 mmHg 91%
    16:00 -4°C° 0.1 mm 4 mps 602 mmHg 91%
    17:00 -4°C° 0 mm 3 mps 602 mmHg 93%
    18:00 -5°C° 0 mm 3 mps 602 mmHg 94%
    19:00 -6°C° 0 mm 3 mps 602 mmHg 96%
    20:00 -5°C° 0 mm 2 mps 603 mmHg 95%
    21:00 -6°C° 0 mm 2 mps 603 mmHg 95%
    22:00 -6°C° 0 mm 2 mps 603 mmHg 95%
    23:00 -6°C° 0 mm 2 mps 602 mmHg 93%

    23 February, Saturday

    Time Temperature Precipitation Wind Pressure Humidity
    00:00 -7°C° 0 mm 2 mps 602 mmHg 92%
    01:00 -7°C° 0 mm 2 mps 602 mmHg 91%
    02:00 -6°C° 0 mm 1 mps 602 mmHg 86%
    03:00 -6°C° 0 mm 1 mps 602 mmHg 82%
    04:00 -6°C° 0 mm 1 mps 602 mmHg 78%
    05:00 -6°C° 0 mm 1 mps 602 mmHg 74%
    06:00 -6°C° 0 mm 1 mps 602 mmHg 70%
    07:00 -6°C° 0 mm 1 mps 602 mmHg 66%
    08:00 -6°C° 0 mm 2 mps 603 mmHg 66%
    09:00 -4°C° 0 mm 2 mps 604 mmHg 67%
    10:00 -2°C° 0 mm 2 mps 605 mmHg 67%
    11:00 -1°C° 0 mm 2 mps 604 mmHg 69%
    12:00 -1°C° 0 mm 2 mps 604 mmHg 70%
    13:00 +1°C° 0 mm 2 mps 604 mmHg 71%
    14:00 +1°C° 0 mm 2 mps 604 mmHg 73%
    15:00 -1°C° 0 mm 2 mps 603 mmHg 74%
    16:00 -1°C° 0 mm 2 mps 603 mmHg 75%
    17:00 -3°C° 0 mm 2 mps 603 mmHg 74%
    18:00 -4°C° 0 mm 2 mps 602 mmHg 72%
    19:00 -5°C° 0 mm 2 mps 602 mmHg 71%
    20:00 -5°C° 0 mm 2 mps 602 mmHg 69%
    21:00 -5°C° 0 mm 2 mps 602 mmHg 67%
    22:00 -5°C° 0 mm 2 mps 602 mmHg 65%
    23:00 -5°C° 0 mm 2 mps 602 mmHg 64%

    24 February, Sunday

    Time Temperature Precipitation Wind Pressure Humidity
    00:00 -6°C° 0 mm 2 mps 602 mmHg 63%
    01:00 -6°C° 0 mm 2 mps 602 mmHg 63%
    02:00 -6°C° 0 mm 2 mps 602 mmHg 62%
    03:00 -6°C° 0 mm 2 mps 601 mmHg 62%
    04:00 -6°C° 0 mm 2 mps 601 mmHg 61%
    05:00 -6°C° 0 mm 2 mps 601 mmHg 62%
    06:00 -7°C° 0 mm 2 mps 601 mmHg 62%
    07:00 -7°C° 0 mm 2 mps 601 mmHg 62%
    08:00 -5°C° 0 mm 2 mps 602 mmHg 63%
    09:00 -4°C° 0 mm 2 mps 603 mmHg 63%
    10:00 -2°C° 0 mm 2 mps 603 mmHg 64%
    11:00 -2°C° 0 mm 2 mps 603 mmHg 66%
    12:00 -1°C° 0 mm 2 mps 603 mmHg 69%
    13:00 -1°C° 0 mm 2 mps 603 mmHg 72%
    14:00 -1°C° 0 mm 2 mps 603 mmHg 74%
    15:00 -1°C° 0 mm 2 mps 603 mmHg 76%
    16:00 -1°C° 0 mm 2 mps 603 mmHg 78%
    17:00 -3°C° 0 mm 2 mps 603 mmHg 76%
    18:00 -5°C° 0 mm 2 mps 602 mmHg 75%
    19:00 -4°C° 0 mm 1 mps 602 mmHg 74%
    20:00 -4°C° 0 mm 1 mps 602 mmHg 67%
    21:00 -6°C° 0 mm 2 mps 602 mmHg 61%
    22:00 -6°C° 0 mm 2 mps 602 mmHg 55%
    23:00 -4°C° 0 mm 1 mps 602 mmHg 51%
    Show more